Weather History for PHNL - February, 2012

Change the Weather History Date:

Tuesday, February 14, 2012

  Actual Average Record
Temperature  
Mean Temperature 73 °F 73 °F  
Max Temperature 81 °F 80 °F 86 °F (1978)
Min Temperature 64 °F 66 °F 57 °F (1993)
Degree Days  
Heating Degree Days 0 0  
Month to date heating degree days 0 0  
Since 1 July heating degree days 0 0  
Cooling Degree Days 8 8  
Month to date cooling degree days 84 112  
Year to date cooling degree days 384 366  
Growing Degree Days 24 (Base 50)    
Moisture  
Dew Point 67 °F    
Average Humidity 78    
Maximum Humidity 97    
Minimum Humidity 58    
Precipitation  
Precipitation 0.00 in 0.07 in 3.15 in (1890)
Month to date precipitation 0.65 0.91  
Year to date precipitation 1.21 3.22  
Snow  
Snow 0.00 in - - ()
Month to date snowfall 0.0  
Since 1 July snowfall 0.0  
Snow Depth 0.00 in    
Sea Level Pressure  
Sea Level Pressure 30.12 in    
Wind  
Wind Speed 4 mph (NW)    
Max Wind Speed 15 mph    
Max Gust Speed 18 mph    
Visibility 10 miles    
Events      
T = Trace of Precipitation, MM = Missing Value Source: NWS Daily Summary

Daily Weather History Graph

Daily Weather History Graph

Search for Another Location

Airport or City:

Trip Planner

Search our weather history database for the weather conditions in past years. The results will help you decide how hot, cold, wet, or windy it might be!

Date:

Astronomy

Feb. 14, 2012 Rise Set
Actual Time 7:02 AM HST 6:29 PM HST
Civil Twilight 6:40 AM HST 6:51 PM HST
Nautical Twilight 6:14 AM HST 7:18 PM HST
Astronomical Twilight 5:47 AM HST 7:44 PM HST
Moon 12:44 AM HST (2/14) 12:02 PM HST (2/14)
Length of Visible Light 12h 11m
Length of Day
11h 26m
Waning Gibbous, 48% of the Moon is Illuminated
Feb 14
Waning Gibbous
Feb 21
New
Feb 29
First Quarter
Mar 7
Full
Mar 14
Last Quarter

Hourly Weather History & Observations

Time (HST) Temp. Heat Index Dew Point Humidity Pressure Visibility Wind Dir Wind Speed Gust Speed Precip Events Conditions
12:53 AM 69.1 °F - 66.9 °F 93% 30.12 in 10.0 mi Calm Calm - N/A   Partly Cloudy
1:53 AM 69.1 °F - 66.9 °F 93% 30.12 in 10.0 mi NW 3.5 mph - N/A   Partly Cloudy
2:53 AM 69.8 °F - 66.9 °F 91% 30.11 in 10.0 mi NNW 4.6 mph - N/A   Partly Cloudy
3:53 AM 71.6 °F - 66.0 °F 82% 30.10 in 10.0 mi Calm Calm - N/A   Partly Cloudy
4:53 AM 71.6 °F - 66.0 °F 82% 30.10 in 10.0 mi North 3.5 mph - N/A   Partly Cloudy
5:53 AM 71.6 °F - 66.2 °F 83% 30.11 in 10.0 mi Calm Calm - N/A   Partly Cloudy
6:53 AM 71.1 °F - 63.0 °F 75% 30.13 in 10.0 mi Calm Calm - N/A   Scattered Clouds
7:53 AM 69.1 °F - 66.9 °F 93% 30.14 in 10.0 mi NW 4.6 mph - N/A   Scattered Clouds
8:53 AM 73.9 °F - 68.0 °F 82% 30.15 in 10.0 mi NW 3.5 mph - N/A   Scattered Clouds
9:53 AM 78.1 °F - 66.0 °F 66% 30.15 in 10.0 mi Calm Calm - N/A   Mostly Cloudy
10:53 AM 77.0 °F - 66.0 °F 69% 30.14 in 10.0 mi SSW 8.1 mph - N/A   Scattered Clouds
11:53 AM 77.0 °F - 66.9 °F 71% 30.12 in 10.0 mi SSW 5.8 mph - N/A   Mostly Cloudy
12:53 PM 80.1 °F 81.7 °F 64.0 °F 58% 30.10 in 10.0 mi NE 4.6 mph - N/A   Mostly Cloudy
1:53 PM 78.1 °F - 66.9 °F 68% 30.08 in 10.0 mi SE 11.5 mph - N/A   Scattered Clouds
2:53 PM 79.0 °F - 68.0 °F 69% 30.07 in 10.0 mi SSE 11.5 mph - N/A   Scattered Clouds
3:53 PM 78.1 °F - 68.0 °F 71% 30.07 in 10.0 mi South 9.2 mph - N/A   Scattered Clouds
4:53 PM 75.9 °F - 68.0 °F 76% 30.08 in 10.0 mi SSW 6.9 mph - N/A   Scattered Clouds
5:53 PM 75.9 °F - 70.0 °F 82% 30.09 in 10.0 mi SW 5.8 mph - N/A   Scattered Clouds
6:53 PM 75.0 °F - 69.1 °F 82% 30.11 in 10.0 mi SW 3.5 mph - N/A   Scattered Clouds
7:53 PM 73.9 °F - 69.1 °F 85% 30.13 in 10.0 mi East 8.1 mph - N/A   Scattered Clouds
8:53 PM 73.0 °F - 68.0 °F 84% 30.14 in 10.0 mi NNE 5.8 mph - N/A   Scattered Clouds
9:53 PM 72.0 °F - 68.0 °F 87% 30.15 in 10.0 mi NNE 3.5 mph - N/A   Scattered Clouds
10:53 PM 71.1 °F - 68.0 °F 90% 30.14 in 10.0 mi Calm Calm - N/A   Clear
11:53 PM 70.7 °F - 68.0 °F 91% 30.14 in 10.0 mi NNE 3.5 mph - N/A   Partly Cloudy